Home   Weather   New York   Past weeks
Flag for USA

Past Weather in New York, New York, USA — Yesterday and Last 2 Weeks

Now
57 °F

Refreshingly cool.


Feels Like: 50 °F
Forecast: 55 / 50 °F
Wind: 44 mph from South

Location: New York City - Central Park

Current Time: Oct 17, 2019 at 2:34:29 pm

Latest Report: Oct 17, 2019 at 1:54 pm


Visibility: N/A

Pressure: 29.32 "Hg

Humidity: 49%

Dew Point: 38 °F

Location of New YorkLocation

Past Weather in New York — Graph

°F

New York Temperature Yesterday

Maximum temperature yesterday: 65 °F (at 12:51 pm)
Minimum temperature yesterday: 54 °F (at 11:06 pm)
Average temperature yesterday: 60 °F

High & Low Weather Summary for the Past Weeks

 TemperatureHumidityPressure
High92 °F (Oct 2, 2:51 pm)97% (Oct 3, 3:32 am)30.47 "Hg (Oct 3, 3:32 am)
Low45 °F (Oct 5, 6:51 am)26% (Oct 10, 7:51 pm)29.13 "Hg (Oct 16, 9:51 pm)
Average60 °F68%30.09 "Hg
* Reported Oct 2 12:51 pm — Oct 17 12:51 pm, New York. Weather by CustomWeather, © 2019

Note: Actual official high and low records may vary slightly from our data, if they occured in-between our weather recording intervals... More about our weather records

Advertising

New York Weather History for the Previous 24 Hours

Scroll right to see more
 ConditionsComfort  
Time TempWeatherWind HumidityBarometerVisibility
12:51 pm
Thu, Oct 17
56 °FOvercast.5 mph53%29.31 "Hg10 mi
11:51 am54 °FOvercast.8 mph57%29.32 "Hg10 mi
9:51 am53 °FOvercast.13 mph59%29.31 "Hg10 mi
8:51 am52 °FPartly sunny.N/A64%29.31 "Hg10 mi
7:51 am52 °FMore clouds than sun.10 mph61%29.29 "Hg10 mi
6:51 am51 °FMostly cloudy.7 mph71%29.28 "Hg10 mi
5:51 am52 °FOvercast.N/A69%29.27 "Hg10 mi
12:51 am52 °FMostly cloudy.10 mph77%29.22 "Hg10 mi
11:06 pm
Wed, Oct 16
54 °FLight rain. Mostly cloudy.21 mph93%29.20 "Hg9 mi
10:10 pm62 °FRain. Fog.5 mph96%29.15 "Hg2 mi
9:51 pm62 °FLight rain. Fog.No wind96%29.13 "Hg4 mi
8:51 pm61 °FHeavy rain. Fog.6 mph93%29.20 "Hg2 mi
6:51 pm61 °FHeavy rain. Fog.5 mph97%29.41 "Hg1 mi
5:59 pm62 °FHeavy rain. Fog.3 mph93%29.52 "Hg1 mi
5:10 pm62 °FRain. Fog.7 mph93%29.57 "Hg4 mi
4:51 pm62 °FLight rain. Fog.7 mph93%29.57 "Hg5 mi
3:51 pm62 °FLight rain. Fog.8 mph93%29.63 "Hg2 mi
3:05 pm62 °FRain. Fog.10 mph93%29.69 "Hg2 mi
2:51 pm63 °FLight rain. Fog.6 mph90%29.67 "Hg2 mi
2:38 pm63 °FRain. Fog.No wind87%29.72 "Hg2 mi
Weather by CustomWeather, © 2019

See weather overview